Regional Weather Roundup
Issued by NWS Newport/Morehead, NC

Current Version | Previous Version | Graphics & Text | Print | Product List | Glossary On
Versions: 1 2 3 4 5 6 7 8 9 10 11 12 13 14 15 16 17 18 19 20 21 22 23 24 25 26 27 28 29 30 31 32 33 34 35 36 37 38 39 40 41 42 43 44 45 46 47 48 49 50
000 ASUS42 KMHX 281110 RWRMHX WEATHER ROUNDUP FOR EASTERN NORTH CAROLINA NATIONAL WEATHER SERVICE NEWPORT/MOREHEAD CITY NC 700 AM EDT THU AUG 28 2014 NOTE: "FAIR" INDICATES FEW OR NO CLOUDS BELOW 12,000 FEET WITH NO SIGNIFICANT WEATHER AND/OR OBSTRUCTIONS TO VISIBILITY NCZ015>017-031-032-045>047-102-103-281200- NORTH COAST CITY SKY/WX TMP DP RH WIND PRES REMARKS EDENTON MOCLDY 71 66 83 W6 29.95R ELIZABETH CITY MOCLDY 69 64 84 W8 29.93R HAZE KITTY HAWK SUNNY 74 68 79 W5 29.93R MANTEO CLEAR 71 67 88 W8 29.94R $$ NCZ045>047-081-094-103-104-281200- CENTRAL COAST CITY SKY/WX TMP DP RH WIND PRES REMARKS FRISCO CLEAR 74 68 81 W8 29.95R SWANQUARTER N/A 73 N/A N/A W6 29.94R $$ NCZ095-097-098-100-101-281200- SOUTHERN COAST CITY SKY/WX TMP DP RH WIND PRES REMARKS BEAUFORT CLEAR 71 62 73 W6 29.98R CEDAR ISLAND N/A 73 N/A N/A SW8G14 30.00S JACKSONVILLE CLEAR 63 59 87 W5 29.99R NEWPORT NOT AVBL PINEY ISLAND SUNNY 74 67 78 W8 29.97R WILMINGTON CLEAR 64 62 93 CALM 30.00R $$ NCZ011>013-027>030-043-044-078>080-089-090>093-098-281200- COASTAL PLAIN CITY SKY/WX TMP DP RH WIND PRES REMARKS AHOSKIE PTCLDY 65 62 90 CALM 29.96R CLINTON NOT AVBL ELIZABETHTOWN CLEAR 65 58 79 CALM 30.00R GOLDSBORO CLEAR 66 65 97 W2 29.96S GREENVILLE PTCLDY 68 63 83 CALM 29.99R HAVELOCK CLEAR 68 60 75 W8 29.99R KENANSVILLE CLEAR 61 59 94 CALM 30.00R KINSTON CLEAR 66 61 82 SW5 29.99R NEW BERN CLEAR 66 60 81 SW5 29.99R RICHLANDS CLEAR 61 55 82 CALM 30.00R ROANOKE RAPIDS NOT AVBL ROCKY MOUNT PTCLDY 65 62 90 CALM 29.97R WASHINGTON PTCLDY 66 63 88 SW3 29.98R WHITEVILLE CLEAR 66 60 80 CALM 30.00R $$ AMZ130-135-150-152-154-156-158-170-250-252-270-ANZ085-086-088-633-658-670-281200- MARINE OBSERVATIONS STATION/POSITION TIME TEMP WIND PRES WAVE SWELL AIR SEA DIR/SP/G HT/PER HT/PER (UTC) (F) (DEG/KT/KT) (MB) (FT/S) (FT/S) CHESAPEAKE LIGHT 1000 75 270/ 11/ 12 1012.7 BUOY 44014 1100 75 74 270/ 12/ 14 1011.8 6/12 5/12 DUCK 1100 74 76 270/ 8/ 11 1012.6 2E DUCK 1100 N/A 4/11 2/11 OREGON INLET 1100 74 78 270/ 8/ 10 1013.4 BUOY 44095 1100 76 N/A 5/13 3/13 20E OREGON INLET NOT AVBL HATTERAS CG 1100 77 79 280/ 14/ 15 1014.4 DIAMOND BUOY 1100 78 280/ 16/ 17 1013.8 5/ 8 5/ 8 CAPE LOOKOUT 1000 77 280/ 9/ 10 1014.3 BEAUFORT LAB 1100 72 79 300/ 5/ 7 1014.5 30 SE NEW RIVER 1100 79 80 300/ 12/ 14 1015.3 4/11 3/11 5 SE WRIGHTSVILL 1100 72 81 290/ 8/ 10 N/A BUOY 41002 0952 80 81 300/ 6/ 8 1016.0 8/ 7 8/ 7 BUOY 41004 1100 80 82 290/ 8/ 10 1015.8 5/ 9 5/ 9 $$

USA.gov is the U.S. government's official web portal to all federal, state and local government web resources and services.